Location: Easter Hill Village
(37.9235°N, 122.3444°W)
Time: 00:05:00
(UTC+00:00)

Cosmos 1536 - Pass Details

Date: 16 September 2019
Orbit: 540 x 559 km, 82.5° (Epoch: 15 October)

Event Time Altitude Azimuth Distance (km) Brightness Sun altitude
Rises 13:24:30 0° 343° (NNW) 2,706 6.3 -6.2°
Reaches altitude 10° 13:26:46 10° 335° (NNW) 1,809 5.3 -5.8°
Maximum altitude 13:30:26 37° 268° (W) 860 3.3 -5.1°
Drops below altitude 10° 13:34:04 10° 201° (SSW) 1,796 5.2 -4.3°
Sets 13:36:19 0° 193° (SSW) 2,685 6.1 -3.9°
